Regional Weather Roundup
Issued by NWS New Orleans/Baton Rouge, LA

Home | Current Version | Previous Version | Text Only | Print | Product List | Glossary On
Versions: 1 2 3 4 5 6 7 8 9 10 11 12 13 14 15 16 17 18 19 20 21 22 23 24 25 26 27 28 29 30 31 32 33 34 35 36 37 38 39 40 41 42 43 44 45 46 47 48 49 50
000
ASUS44 KLIX 251010
RWRLIX
NEW ORLEANS REGIONAL WEATHER ROUNDUP
NATIONAL WEATHER SERVICE NEW ORLEANS LA
400 AM CST SUN JAN 25 2015

NOTE: "FAIR" INDICATES FEW OR NO CLOUDS BELOW 12,000 FEET WITH NO
      SIGNIFICANT WEATHER AND/OR OBSTRUCTIONS TO VISIBILITY.
      SKY/WX - SKY CONDITION AND SIGNIFICANT WEATHER.
      TMP - AIR TEMPERATURE.     DP    - DEWPOINT TEMPERATURE.
      RH  - RELATIVE HUMIDITY.   PRES  - PRESSURE.
      HI  - HEAT INDEX.          WCI   - WIND CHILL INDEX.

*  THESE STATIONS ARE NOT NWS OR FAA STATIONS AND ARE NOT UNDER
   NWS QUALITY CONTROL.

LAZ038-040-048-061>063-065>067-069-251100-
SOUTHEAST LOUISIANA

CITY           SKY/WX    TMP DP  RH WIND       PRES   REMARKS
N.O. AUDUBON     N/A     41  41 100 MISG        N/A
N.O. INTL ARPT PTCLDY    44  40  85 SW7       30.06F
N.O. LAKEFRONT CLEAR     46  41  82 SW6       30.06F
N.O. DOWNTOWN*   N/A     46  39  76 S5        30.07S
SLIDELL        CLEAR     39  36  89 CALM      30.05F
BATON ROUGE    CLEAR     42  39  89 SW7       30.04F
BOOTHVILLE     CLEAR     46  44  93 W5        30.09F
BELLE CHASSE   CLEAR     37  35  92 S5        30.07S WCI  33
BOGALUSA*        N/A     35  32  90 CALM      30.07R
GALLIANO*      SUNNY     38  38  98 MISG      30.08F FOG
NEW ROADS*       N/A     42  40  93 CALM      30.04F
GONZALES*        N/A     38  38 100 CALM      30.04F
HAMMOND*       CLEAR     39  36  87 CALM      30.06F
HOUMA*         SNOW      37  37 100 CALM      30.07F VSB<1/4
PORT FOURCHON* CLOUDY    52  46  82 W6        30.11F

$$

MSZ070-080>082-251100-
SOUTHERN MISSISSIPPI

CITY           SKY/WX    TMP DP  RH WIND       PRES   REMARKS
MCCOMB         CLEAR     33  31  92 S6        30.03R WCI  28
GULFPORT       PTCLDY    39  37  92 CALM      30.05F
BILOXI         PTCLDY    45  41  85 W3        30.05F
PASCAGOULA     FOG       36  35  96 CALM      30.06S VSB 3/4

$$

COASTAL OBSERVATIONS
LAKE AND NEARSHORE STATIONS

STATION/POSITION TIME  TEMP    WIND        PRES    WAVE
                       AIR SEA DIR/SP/G            HT/PER
                 (UTC) (F)     (DEG/KT/KT) (MB)    (FT/S)
PASCAGOULA       1000   47     280/  8/ 10 1017.4
WAVELAND YACHT   1000   45     280/  4/  6 1016.9
GRAND ISLE       1000   51 53  270/  7/ 10 1018.9
SOUTHWEST PASS   1000   53 45  310/  9/ 14 1019.1
NEW CANAL        1000   45 51  220/  3/  4 1018.1
SHELL BEACH      1000   45 52  230/  7/  7 1018.1

OFFSHORE STATIONS

STATION/POSITION TIME  TEMP    WIND        PRES    WAVE
                       AIR SEA DIR/SP/G            HT/PER
                 (UTC) (F)     (DEG/KT/KT) (MB)    (FT/S)
64 S DAUPHIN ISL 0915   56 70  300/ 16/ 19 1018.5    5/ 5

$$



USA.gov is the U.S. government's official web portal to all federal, state and local government web resources and services.